TimeCDT,TemperatureF,Dew PointF,Humidity,Sea Level PressureIn,VisibilityMPH,Wind Direction,Wind SpeedMPH,Gust SpeedMPH,PrecipitationIn,Events,Conditions,WindDirDegrees,DateUTC
12:15 AM,50.0,33.8,54,29.93,10.0,North,4.6,-,N/A,,Clear,360,2012-10-02 05:15:00
12:35 AM,48.2,33.8,58,29.92,10.0,North,4.6,-,N/A,,Clear,360,2012-10-02 05:35:00
1:15 AM,48.2,33.8,58,29.94,10.0,North,6.9,-,N/A,,Clear,360,2012-10-02 06:15:00
2:15 AM,48.2,32.0,54,29.95,10.0,North,8.1,-,N/A,,Clear,350,2012-10-02 07:15:00
2:35 AM,46.4,32.0,57,29.95,10.0,North,9.2,-,N/A,,Clear,350,2012-10-02 07:35:00
2:55 AM,46.4,32.0,57,29.94,10.0,North,9.2,-,N/A,,Clear,350,2012-10-02 07:55:00
3:15 AM,44.6,32.0,61,29.94,10.0,North,5.8,-,N/A,,Clear,360,2012-10-02 08:15:00
3:35 AM,44.6,32.0,61,29.94,10.0,North,6.9,-,N/A,,Clear,360,2012-10-02 08:35:00
3:55 AM,44.6,32.0,61,29.94,10.0,North,5.8,-,N/A,,Clear,360,2012-10-02 08:55:00
4:15 AM,42.8,32.0,66,29.94,10.0,North,4.6,-,N/A,,Clear,10,2012-10-02 09:15:00
4:35 AM,42.8,32.0,66,29.94,10.0,North,4.6,-,N/A,,Clear,360,2012-10-02 09:35:00
4:55 AM,42.8,32.0,66,29.94,10.0,Calm,Calm,-,N/A,,Clear,0,2012-10-02 09:55:00
5:15 AM,42.8,32.0,66,29.94,10.0,Calm,Calm,-,N/A,,Clear,0,2012-10-02 10:15:00
5:35 AM,42.8,32.0,66,29.94,10.0,North,3.5,-,N/A,,Clear,350,2012-10-02 10:35:00
5:55 AM,41.0,32.0,70,29.94,10.0,Calm,Calm,-,N/A,,Clear,0,2012-10-02 10:55:00
6:15 AM,39.2,32.0,75,29.95,10.0,North,3.5,-,N/A,,Clear,360,2012-10-02 11:15:00
6:35 AM,41.0,33.8,76,29.95,10.0,Calm,Calm,-,N/A,,Clear,0,2012-10-02 11:35:00
6:55 AM,37.4,32.0,81,29.95,10.0,Calm,Calm,-,N/A,,Clear,0,2012-10-02 11:55:00
7:15 AM,37.4,32.0,81,29.96,7.0,NNW,3.5,-,N/A,,Clear,340,2012-10-02 12:15:00
7:35 AM,41.0,32.0,70,29.96,10.0,Calm,Calm,-,N/A,,Clear,0,2012-10-02 12:35:00
7:55 AM,41.0,33.8,76,29.96,10.0,Calm,Calm,-,N/A,,Clear,0,2012-10-02 12:55:00
8:15 AM,44.6,33.8,66,29.97,10.0,Calm,Calm,-,N/A,,Clear,0,2012-10-02 13:15:00
8:35 AM,46.4,33.8,62,29.97,10.0,North,4.6,-,N/A,,Clear,360,2012-10-02 13:35:00
8:55 AM,48.2,35.6,62,29.97,10.0,Calm,Calm,-,N/A,,Clear,0,2012-10-02 13:55:00
9:15 AM,51.8,37.4,58,29.97,10.0,NNE,3.5,-,N/A,,Clear,20,2012-10-02 14:15:00
9:35 AM,53.6,41.0,62,29.97,10.0,NE,3.5,-,N/A,,Clear,40,2012-10-02 14:35:00
9:55 AM,57.2,41.0,55,29.97,10.0,NE,6.9,-,N/A,,Clear,40,2012-10-02 14:55:00
10:15 AM,59.0,42.8,55,29.97,10.0,ENE,3.5,-,N/A,,Clear,60,2012-10-02 15:15:00
10:35 AM,60.8,42.8,52,29.96,10.0,NE,4.6,-,N/A,,Clear,40,2012-10-02 15:35:00
10:55 AM,62.6,41.0,45,29.96,10.0,East,6.9,-,N/A,,Clear,90,2012-10-02 15:55:00
11:15 AM,64.4,37.4,37,29.96,10.0,East,5.8,-,N/A,,Clear,90,2012-10-02 16:15:00
11:35 AM,64.4,35.6,34,29.95,10.0,NNE,5.8,-,N/A,,Clear,20,2012-10-02 16:35:00
11:55 AM,64.4,33.8,32,29.95,10.0,Calm,Calm,-,N/A,,Clear,0,2012-10-02 16:55:00
12:15 PM,64.4,35.6,34,29.94,10.0,North,3.5,-,N/A,,Clear,360,2012-10-02 17:15:00
12:35 PM,68.0,33.8,28,29.93,10.0,NW,3.5,-,N/A,,Clear,310,2012-10-02 17:35:00
12:55 PM,68.0,33.8,28,29.93,10.0,ESE,5.8,-,N/A,,Clear,120,2012-10-02 17:55:00
1:15 PM,68.0,32.0,26,29.92,10.0,NW,5.8,-,N/A,,Clear,320,2012-10-02 18:15:00
1:35 PM,69.8,32.0,25,29.91,10.0,NNW,6.9,-,N/A,,Clear,340,2012-10-02 18:35:00
1:55 PM,69.8,28.4,21,29.90,10.0,SW,3.5,-,N/A,,Clear,230,2012-10-02 18:55:00
2:15 PM,68.0,28.4,23,29.89,10.0,SE,3.5,-,N/A,,Clear,130,2012-10-02 19:15:00
2:35 PM,69.8,28.4,21,29.89,10.0,Calm,Calm,-,N/A,,Clear,0,2012-10-02 19:35:00
3:15 PM,69.8,28.4,21,29.87,10.0,SSE,4.6,-,N/A,,Clear,150,2012-10-02 20:15:00
3:35 PM,71.6,28.4,20,29.87,10.0,SW,4.6,-,N/A,,Clear,230,2012-10-02 20:35:00
3:55 PM,71.6,26.6,19,29.87,10.0,Calm,Calm,-,N/A,,Clear,0,2012-10-02 20:55:00
4:15 PM,71.6,26.6,19,29.86,10.0,South,4.6,-,N/A,,Clear,180,2012-10-02 21:15:00
4:35 PM,71.6,28.4,20,29.86,10.0,SW,4.6,-,N/A,,Clear,220,2012-10-02 21:35:00
4:55 PM,71.6,28.4,20,29.86,10.0,Calm,Calm,-,N/A,,Clear,0,2012-10-02 21:55:00
5:15 PM,71.6,26.6,19,29.86,10.0,Calm,Calm,-,N/A,,Clear,0,2012-10-02 22:15:00
5:35 PM,71.6,28.4,20,29.86,10.0,Calm,Calm,-,N/A,,Clear,0,2012-10-02 22:35:00
6:15 PM,68.0,28.4,23,29.86,10.0,Calm,Calm,-,N/A,,Clear,0,2012-10-02 23:15:00
6:35 PM,66.2,28.4,24,29.87,10.0,Calm,Calm,-,N/A,,Clear,0,2012-10-02 23:35:00
6:55 PM,62.6,32.0,32,29.87,10.0,Calm,Calm,-,N/A,,Clear,0,2012-10-02 23:55:00
7:15 PM,57.2,30.2,36,29.87,10.0,Calm,Calm,-,N/A,,Clear,0,2012-10-03 00:15:00
7:35 PM,55.4,32.0,41,29.87,10.0,Calm,Calm,-,N/A,,Clear,0,2012-10-03 00:35:00
7:55 PM,53.6,35.6,51,29.88,10.0,Calm,Calm,-,N/A,,Clear,0,2012-10-03 00:55:00
8:15 PM,50.0,32.0,50,29.88,10.0,Calm,Calm,-,N/A,,Clear,0,2012-10-03 01:15:00
8:35 PM,50.0,35.6,58,29.88,10.0,Calm,Calm,-,N/A,,Clear,0,2012-10-03 01:35:00
8:55 PM,48.2,37.4,66,29.89,10.0,Calm,Calm,-,N/A,,Clear,0,2012-10-03 01:55:00
9:15 PM,46.4,33.8,62,29.89,7.0,Calm,Calm,-,N/A,,Clear,0,2012-10-03 02:15:00
9:35 PM,42.8,33.8,70,29.89,7.0,Calm,Calm,-,N/A,,Clear,0,2012-10-03 02:35:00
9:55 PM,42.8,33.8,70,29.89,7.0,Calm,Calm,-,N/A,,Clear,0,2012-10-03 02:55:00
10:15 PM,42.8,35.6,76,29.89,7.0,Calm,Calm,-,N/A,,Clear,0,2012-10-03 03:15:00
10:35 PM,42.8,33.8,70,29.89,7.0,Calm,Calm,-,N/A,,Clear,0,2012-10-03 03:35:00
10:55 PM,42.8,35.6,76,29.90,10.0,Calm,Calm,-,N/A,,Clear,0,2012-10-03 03:55:00
11:15 PM,42.8,35.6,76,29.89,7.0,Calm,Calm,-,N/A,,Clear,0,2012-10-03 04:15:00
11:35 PM,42.8,35.6,76,29.90,7.0,Calm,Calm,-,N/A,,Clear,0,2012-10-03 04:35:00
11:55 PM,42.8,33.8,70,29.90,7.0,Calm,Calm,-,N/A,,Clear,0,2012-10-03 04:55:00